Time,TemperatureF,DewpointF,PressureIn,WindDirection,WindDirectionDegrees,WindSpeedMPH,WindSpeedGustMPH,Humidity,HourlyPrecipIn,Conditions,Clouds,dailyrainin,SoftwareType,DateUTC
2013-02-25 00:01:00,23.0,21.0,30.14,NW,313,0.0,0.0,90,0.00,,,0.04,,2013-02-25 05:01:00,
2013-02-25 00:11:00,23.0,21.0,30.14,NW,313,0.0,0.0,90,0.00,,,0.04,,2013-02-25 05:11:00,
2013-02-25 00:22:00,23.0,21.0,30.14,NW,313,0.0,0.0,90,0.00,,,0.04,,2013-02-25 05:22:00,
2013-02-25 00:32:00,23.0,20.0,30.14,NW,313,0.0,0.0,89,0.00,,,0.04,,2013-02-25 05:32:00,
2013-02-25 00:42:00,23.0,20.0,30.14,NW,313,0.0,0.0,89,0.00,,,0.04,,2013-02-25 05:42:00,
2013-02-25 00:52:00,23.0,20.0,30.14,NW,313,0.0,0.0,88,0.00,,,0.04,,2013-02-25 05:52:00,
2013-02-25 01:02:00,22.0,19.0,30.14,NW,313,0.0,0.0,89,0.00,,,0.04,,2013-02-25 06:02:00,
2013-02-25 01:11:00,22.0,19.0,30.14,NW,313,0.0,0.0,89,0.00,,,0.04,,2013-02-25 06:11:00,
2013-02-25 01:21:00,22.0,19.0,30.14,NW,313,0.0,0.0,89,0.00,,,0.04,,2013-02-25 06:21:00,
2013-02-25 01:32:00,23.0,20.0,30.14,NW,313,0.0,0.0,89,0.00,,,0.04,,2013-02-25 06:32:00,
2013-02-25 01:42:00,23.0,20.0,30.14,NW,313,0.0,0.0,89,0.00,,,0.04,,2013-02-25 06:42:00,
2013-02-25 01:51:00,22.0,19.0,30.14,NW,313,0.0,0.0,88,0.00,,,0.04,,2013-02-25 06:51:00,
2013-02-25 02:01:00,22.0,19.0,30.14,NW,313,0.0,0.0,88,0.00,,,0.04,,2013-02-25 07:01:00,
2013-02-25 02:11:00,22.0,19.0,30.14,NW,313,0.0,0.0,88,0.00,,,0.04,,2013-02-25 07:11:00,
2013-02-25 02:21:00,22.0,19.0,30.14,NW,313,0.0,0.0,88,0.00,,,0.04,,2013-02-25 07:21:00,
2013-02-25 02:32:00,21.0,19.0,30.13,NW,313,0.0,0.0,90,0.00,,,0.04,,2013-02-25 07:32:00,
2013-02-25 02:42:00,21.0,19.0,30.13,NW,313,0.0,0.0,90,0.00,,,0.04,,2013-02-25 07:42:00,
2013-02-25 02:52:00,21.0,18.0,30.13,NW,313,0.0,0.0,89,0.00,,,0.04,,2013-02-25 07:52:00,
2013-02-25 03:01:00,21.0,19.0,30.13,NW,313,0.0,0.0,90,0.00,,,0.04,,2013-02-25 08:01:00,
2013-02-25 03:11:00,21.0,19.0,30.13,NW,313,0.0,0.0,90,0.00,,,0.04,,2013-02-25 08:11:00,
2013-02-25 03:21:00,22.0,20.0,30.13,NW,313,0.0,0.0,91,0.00,,,0.04,,2013-02-25 08:21:00,
2013-02-25 03:32:00,21.0,19.0,30.12,NW,313,0.0,0.0,90,0.00,,,0.04,,2013-02-25 08:32:00,
2013-02-25 03:41:00,21.0,19.0,30.12,NW,313,0.0,0.0,90,0.00,,,0.04,,2013-02-25 08:41:00,
2013-02-25 03:52:00,21.0,19.0,30.12,NW,313,0.0,0.0,90,0.00,,,0.04,,2013-02-25 08:52:00,
2013-02-25 04:01:00,21.0,19.0,30.11,NW,313,0.0,0.0,90,0.00,,,0.04,,2013-02-25 09:01:00,
2013-02-25 04:12:00,21.0,19.0,30.11,NW,313,0.0,0.0,90,0.00,,,0.04,,2013-02-25 09:12:00,
2013-02-25 04:21:00,22.0,20.0,30.12,NW,313,0.0,0.0,90,0.00,,,0.04,,2013-02-25 09:21:00,
2013-02-25 04:32:00,22.0,20.0,30.13,NW,313,0.0,0.0,90,0.00,,,0.04,,2013-02-25 09:32:00,
2013-02-25 04:41:00,22.0,20.0,30.13,NW,313,0.0,0.0,90,0.00,,,0.04,,2013-02-25 09:41:00,
2013-02-25 04:51:00,21.0,18.0,30.13,NW,313,0.0,0.0,89,0.00,,,0.04,,2013-02-25 09:51:00,
2013-02-25 05:01:00,21.0,18.0,30.13,NW,313,0.0,0.0,89,0.00,,,0.04,,2013-02-25 10:01:00,
2013-02-25 05:11:00,21.0,18.0,30.13,NW,313,0.0,0.0,89,0.00,,,0.04,,2013-02-25 10:11:00,
2013-02-25 05:21:00,21.0,19.0,30.13,NW,313,0.0,0.0,90,0.00,,,0.04,,2013-02-25 10:21:00,
2013-02-25 05:32:00,21.0,19.0,30.14,NW,313,0.0,0.0,90,0.00,,,0.04,,2013-02-25 10:32:00,
2013-02-25 05:42:00,21.0,19.0,30.14,NW,313,0.0,0.0,90,0.00,,,0.04,,2013-02-25 10:42:00,
2013-02-25 05:52:00,21.0,18.0,30.15,NW,313,0.0,0.0,89,0.00,,,0.04,,2013-02-25 10:52:00,
2013-02-25 06:01:00,20.0,17.0,30.16,NW,313,0.0,0.0,89,0.00,,,0.04,,2013-02-25 11:01:00,
2013-02-25 06:11:00,20.0,17.0,30.16,NW,313,0.0,0.0,89,0.00,,,0.04,,2013-02-25 11:11:00,
2013-02-25 06:21:00,20.0,17.0,30.16,NW,313,0.0,0.0,89,0.00,,,0.04,,2013-02-25 11:21:00,
2013-02-25 06:32:00,20.0,18.0,30.16,NW,313,0.0,0.0,90,0.00,,,0.04,,2013-02-25 11:32:00,
2013-02-25 06:42:00,20.0,18.0,30.16,NW,313,0.0,0.0,90,0.00,,,0.04,,2013-02-25 11:42:00,
2013-02-25 06:52:00,20.0,17.0,30.16,NW,313,0.0,0.0,89,0.00,,,0.04,,2013-02-25 11:52:00,
2013-02-25 07:02:00,20.0,18.0,30.16,NW,313,0.0,0.0,90,0.00,,,0.04,,2013-02-25 12:02:00,
2013-02-25 07:11:00,20.0,18.0,30.16,NW,313,0.0,0.0,90,0.00,,,0.04,,2013-02-25 12:11:00,
2013-02-25 07:21:00,20.0,18.0,30.17,NW,313,0.0,0.0,90,0.00,,,0.04,,2013-02-25 12:21:00,
2013-02-25 07:32:00,20.0,18.0,30.17,NW,313,0.0,0.0,90,0.00,,,0.04,,2013-02-25 12:32:00,
2013-02-25 07:42:00,20.0,18.0,30.17,NW,313,0.0,0.0,90,0.00,,,0.04,,2013-02-25 12:42:00,
2013-02-25 07:53:00,20.0,18.0,30.17,NW,313,0.0,0.0,90,0.00,,,0.04,,2013-02-25 12:53:00,
2013-02-25 08:02:00,20.0,18.0,30.16,NW,313,0.0,0.0,90,0.00,,,0.04,,2013-02-25 13:02:00,
2013-02-25 08:12:00,20.0,18.0,30.16,NW,313,0.0,0.0,90,0.00,,,0.04,,2013-02-25 13:12:00,
2013-02-25 08:22:00,21.0,19.0,30.15,NNW,331,0.0,1.0,92,0.00,,,0.04,,2013-02-25 13:22:00,
2013-02-25 08:32:00,24.0,22.0,30.16,NNW,338,0.0,2.0,92,0.00,,,0.04,,2013-02-25 13:32:00,
2013-02-25 08:42:00,24.0,22.0,30.16,NNW,338,0.0,2.0,92,0.00,,,0.04,,2013-02-25 13:42:00,
2013-02-25 08:52:00,26.0,23.0,30.16,NNW,339,0.0,3.0,89,0.00,,,0.04,,2013-02-25 13:52:00,
2013-02-25 09:03:00,28.0,24.0,30.16,NNW,340,1.0,3.0,85,0.00,,,0.04,,2013-02-25 14:03:00,
2013-02-25 09:17:00,28.0,24.0,30.16,NNW,340,1.0,3.0,85,0.00,,,0.04,,2013-02-25 14:17:00,
2013-02-25 09:32:00,31.0,25.0,30.15,ESE,113,1.0,4.0,79,0.00,,,0.04,,2013-02-25 14:32:00,
2013-02-25 09:42:00,31.0,25.0,30.15,ESE,113,1.0,4.0,79,0.00,,,0.04,,2013-02-25 14:42:00,
2013-02-25 09:52:00,32.0,25.0,30.16,ESE,104,2.0,6.0,75,0.00,,,0.04,,2013-02-25 14:52:00,
2013-02-25 10:02:00,33.0,26.0,30.16,East,97,2.0,7.0,75,0.00,,,0.04,,2013-02-25 15:02:00,
2013-02-25 10:11:00,33.0,26.0,30.16,East,97,2.0,7.0,75,0.00,,,0.04,,2013-02-25 15:11:00,
2013-02-25 10:21:00,34.0,25.0,30.16,ESE,107,4.0,9.0,70,0.00,,,0.04,,2013-02-25 15:21:00,
2013-02-25 10:32:00,34.0,25.0,30.16,SE,124,4.0,12.0,70,0.00,,,0.04,,2013-02-25 15:32:00,
2013-02-25 10:41:00,34.0,25.0,30.16,SE,124,4.0,12.0,70,0.00,,,0.04,,2013-02-25 15:41:00,
2013-02-25 10:51:00,34.0,25.0,30.16,SE,129,4.0,8.0,68,0.00,,,0.04,,2013-02-25 15:51:00,
2013-02-25 11:02:00,36.0,26.0,30.15,SE,127,5.0,11.0,66,0.00,,,0.04,,2013-02-25 16:02:00,
2013-02-25 11:11:00,36.0,26.0,30.15,SE,127,5.0,11.0,66,0.00,,,0.04,,2013-02-25 16:11:00,
2013-02-25 11:21:00,36.0,25.0,30.15,SE,137,6.0,11.0,64,0.00,,,0.04,,2013-02-25 16:21:00,
2013-02-25 11:32:00,36.0,25.0,30.15,SSE,153,4.0,13.0,64,0.00,,,0.03,,2013-02-25 16:32:00,
2013-02-25 11:42:00,36.0,25.0,30.15,SSE,153,4.0,13.0,64,0.00,,,0.03,,2013-02-25 16:42:00,
2013-02-25 11:51:00,37.0,25.0,30.14,ESE,111,5.0,10.0,61,0.00,,,0.03,,2013-02-25 16:51:00,
2013-02-25 12:01:00,38.0,26.0,30.14,SSE,147,5.0,8.0,62,0.00,,,0.03,,2013-02-25 17:01:00,
2013-02-25 12:11:00,38.0,26.0,30.14,SSE,147,5.0,8.0,62,0.00,,,0.03,,2013-02-25 17:11:00,
2013-02-25 12:21:00,38.0,25.0,30.13,ESE,119,8.0,13.0,59,0.00,,,0.03,,2013-02-25 17:21:00,
2013-02-25 12:32:00,38.0,25.0,30.13,East,88,4.0,14.0,60,0.00,,,0.03,,2013-02-25 17:32:00,
2013-02-25 12:41:00,38.0,25.0,30.13,East,88,4.0,14.0,60,0.00,,,0.03,,2013-02-25 17:41:00,
2013-02-25 12:52:00,39.0,26.0,30.11,SE,142,6.0,10.0,60,0.00,,,0.03,,2013-02-25 17:52:00,
2013-02-25 13:01:00,39.0,26.0,30.10,ESE,108,5.0,13.0,59,0.00,,,0.03,,2013-02-25 18:01:00,
2013-02-25 13:12:00,39.0,26.0,30.10,ESE,108,5.0,13.0,59,0.00,,,0.03,,2013-02-25 18:12:00,
2013-02-25 13:21:00,39.0,26.0,30.10,SE,132,3.0,9.0,60,0.00,,,0.03,,2013-02-25 18:21:00,
2013-02-25 13:32:00,40.0,27.0,30.09,ESE,103,6.0,11.0,60,0.00,,,0.02,,2013-02-25 18:32:00,
2013-02-25 13:41:00,40.0,27.0,30.09,ESE,103,6.0,11.0,60,0.00,,,0.02,,2013-02-25 18:41:00,
2013-02-25 13:51:00,40.0,27.0,30.09,SE,127,5.0,10.0,60,0.00,,,0.02,,2013-02-25 18:51:00,
2013-02-25 14:01:00,40.0,28.0,30.08,East,98,6.0,11.0,61,0.00,,,0.02,,2013-02-25 19:01:00,
2013-02-25 14:11:00,40.0,28.0,30.08,East,98,6.0,11.0,61,0.00,,,0.02,,2013-02-25 19:11:00,
2013-02-25 14:21:00,41.0,29.0,30.07,East,98,3.0,14.0,63,0.00,,,0.02,,2013-02-25 19:21:00,
2013-02-25 14:32:00,42.0,30.0,30.07,ENE,77,4.0,9.0,61,0.00,,,0.01,,2013-02-25 19:32:00,
2013-02-25 14:42:00,42.0,30.0,30.07,ENE,77,4.0,9.0,61,0.00,,,0.01,,2013-02-25 19:42:00,
2013-02-25 14:52:00,42.0,28.0,30.06,East,101,4.0,10.0,58,0.00,,,0.01,,2013-02-25 19:52:00,
2013-02-25 15:01:00,42.0,29.0,30.05,ESE,113,4.0,11.0,59,0.00,,,0.01,,2013-02-25 20:01:00,
2013-02-25 15:11:00,42.0,29.0,30.05,ESE,113,4.0,11.0,59,0.00,,,0.01,,2013-02-25 20:11:00,
2013-02-25 15:21:00,42.0,28.0,30.05,East,84,7.0,11.0,58,0.00,,,0.01,,2013-02-25 20:21:00,
2013-02-25 15:32:00,42.0,29.0,30.04,ESE,111,5.0,13.0,59,0.00,,,0.01,,2013-02-25 20:32:00,
2013-02-25 15:42:00,42.0,29.0,30.04,ESE,111,5.0,13.0,59,0.00,,,0.01,,2013-02-25 20:42:00,
2013-02-25 15:52:00,43.0,29.0,30.03,ENE,71,7.0,11.0,57,0.00,,,0.01,,2013-02-25 20:52:00,
2013-02-25 16:01:00,43.0,29.0,30.03,ESE,115,6.0,11.0,57,0.00,,,0.01,,2013-02-25 21:01:00,
2013-02-25 16:11:00,43.0,29.0,30.03,ESE,115,6.0,11.0,57,0.00,,,0.01,,2013-02-25 21:11:00,
2013-02-25 16:21:00,44.0,29.0,30.02,SSE,154,4.0,10.0,56,0.00,,,0.01,,2013-02-25 21:21:00,
2013-02-25 16:32:00,43.0,28.0,30.03,East,94,5.0,10.0,56,0.00,,,0.00,,2013-02-25 21:32:00,
2013-02-25 16:42:00,43.0,28.0,30.03,East,94,5.0,10.0,56,0.00,,,0.00,,2013-02-25 21:42:00,
2013-02-25 16:51:00,43.0,28.0,30.02,East,94,4.0,10.0,55,0.00,,,0.00,,2013-02-25 21:51:00,
2013-02-25 17:01:00,43.0,28.0,30.02,East,96,7.0,11.0,55,0.00,,,0.00,,2013-02-25 22:01:00,
2013-02-25 17:11:00,43.0,28.0,30.02,East,96,7.0,11.0,55,0.00,,,0.00,,2013-02-25 22:11:00,
2013-02-25 17:21:00,43.0,29.0,30.01,ESE,107,4.0,10.0,57,0.00,,,0.00,,2013-02-25 22:21:00,
2013-02-25 17:32:00,42.0,28.0,30.01,ESE,112,5.0,9.0,58,0.00,,,0.00,,2013-02-25 22:32:00,
2013-02-25 17:42:00,42.0,28.0,30.01,ESE,112,5.0,9.0,58,0.00,,,0.00,,2013-02-25 22:42:00,
2013-02-25 17:51:00,41.0,28.0,30.00,East,95,6.0,10.0,59,0.00,,,0.00,,2013-02-25 22:51:00,
2013-02-25 18:01:00,41.0,28.0,30.00,East,80,4.0,9.0,60,0.00,,,0.00,,2013-02-25 23:01:00,
2013-02-25 18:11:00,41.0,28.0,30.00,East,80,4.0,9.0,60,0.00,,,0.00,,2013-02-25 23:11:00,
2013-02-25 18:22:00,40.0,28.0,29.99,ENE,76,4.0,8.0,61,0.00,,,0.00,,2013-02-25 23:22:00,
2013-02-25 18:31:00,40.0,28.0,30.00,East,86,4.0,7.0,63,0.00,,,0.00,,2013-02-25 23:31:00,
2013-02-25 18:41:00,40.0,28.0,30.00,East,86,4.0,7.0,63,0.00,,,0.00,,2013-02-25 23:41:00,
2013-02-25 18:52:00,39.0,28.0,29.99,East,92,2.0,9.0,64,0.00,,,0.00,,2013-02-25 23:52:00,
2013-02-25 19:01:00,39.0,28.0,29.99,East,92,2.0,9.0,64,0.00,,,0.00,,2013-02-26 00:01:00,
2013-02-25 19:12:00,39.0,28.0,29.99,East,92,2.0,9.0,64,0.00,,,0.00,,2013-02-26 00:12:00,
2013-02-25 19:22:00,38.0,28.0,29.99,East,86,6.0,10.0,67,0.00,,,0.00,,2013-02-26 00:22:00,
2013-02-25 19:32:00,38.0,28.0,29.98,ENE,71,4.0,8.0,68,0.00,,,0.00,,2013-02-26 00:32:00,
2013-02-25 19:42:00,38.0,28.0,29.98,ENE,71,4.0,8.0,68,0.00,,,0.00,,2013-02-26 00:42:00,
2013-02-25 19:51:00,37.0,27.0,29.98,ENE,63,3.0,8.0,68,0.00,,,0.00,,2013-02-26 00:51:00,
2013-02-25 20:02:00,36.0,27.0,29.96,ENE,65,3.0,7.0,70,0.00,,,0.00,,2013-02-26 01:02:00,
2013-02-25 20:11:00,36.0,27.0,29.96,ENE,65,3.0,7.0,70,0.00,,,0.00,,2013-02-26 01:11:00,
2013-02-25 20:21:00,36.0,27.0,29.95,ENE,76,4.0,9.0,70,0.00,,,0.00,,2013-02-26 01:21:00,
2013-02-25 20:32:00,36.0,27.0,29.96,East,80,3.0,9.0,70,0.00,,,0.00,,2013-02-26 01:32:00,
2013-02-25 20:41:00,36.0,27.0,29.96,East,80,3.0,9.0,70,0.00,,,0.00,,2013-02-26 01:41:00,
2013-02-25 20:51:00,36.0,28.0,29.94,East,87,5.0,8.0,71,0.00,,,0.00,,2013-02-26 01:51:00,
2013-02-25 21:01:00,35.0,27.0,29.95,ENE,66,3.0,8.0,72,0.00,,,0.00,,2013-02-26 02:01:00,
2013-02-25 21:11:00,35.0,27.0,29.95,ENE,66,3.0,8.0,72,0.00,,,0.00,,2013-02-26 02:11:00,
2013-02-25 21:21:00,35.0,27.0,29.97,East,94,2.0,6.0,72,0.00,,,0.00,,2013-02-26 02:21:00,
2013-02-25 21:32:00,35.0,27.0,29.98,East,86,1.0,5.0,73,0.00,,,0.00,,2013-02-26 02:32:00,
2013-02-25 21:42:00,35.0,27.0,29.98,East,86,1.0,5.0,73,0.00,,,0.00,,2013-02-26 02:42:00,
2013-02-25 21:52:00,35.0,27.0,29.98,ENE,67,2.0,7.0,73,0.00,,,0.00,,2013-02-26 02:52:00,
2013-02-25 22:02:00,35.0,28.0,29.98,ENE,77,1.0,5.0,74,0.00,,,0.00,,2013-02-26 03:02:00,
2013-02-25 22:11:00,35.0,28.0,29.98,ENE,77,1.0,5.0,74,0.00,,,0.00,,2013-02-26 03:11:00,
2013-02-25 22:21:00,35.0,28.0,29.96,East,89,3.0,7.0,75,0.00,,,0.00,,2013-02-26 03:21:00,
2013-02-25 22:32:00,35.0,28.0,29.95,East,94,5.0,10.0,74,0.00,,,0.00,,2013-02-26 03:32:00,
2013-02-25 22:42:00,35.0,28.0,29.95,East,94,5.0,10.0,74,0.00,,,0.00,,2013-02-26 03:42:00,
2013-02-25 22:52:00,35.0,28.0,29.94,East,84,4.0,11.0,74,0.00,,,0.00,,2013-02-26 03:52:00,
2013-02-25 23:01:00,35.0,27.0,29.94,East,90,5.0,9.0,73,0.00,,,0.00,,2013-02-26 04:01:00,
2013-02-25 23:11:00,35.0,27.0,29.94,East,90,5.0,9.0,73,0.00,,,0.00,,2013-02-26 04:11:00,
2013-02-25 23:21:00,35.0,27.0,29.92,ENE,74,5.0,13.0,73,0.00,,,0.00,,2013-02-26 04:21:00,
2013-02-25 23:32:00,35.0,28.0,29.92,East,84,3.0,9.0,74,0.00,,,0.00,,2013-02-26 04:32:00,
2013-02-25 23:42:00,35.0,28.0,29.92,East,84,3.0,9.0,74,0.00,,,0.00,,2013-02-26 04:42:00,
2013-02-25 23:51:00,34.0,27.0,29.91,East,89,5.0,11.0,75,0.00,,,0.00,,2013-02-26 04:51:00,